STARLINK-11269 [DTC]

Last updated on Sun Oct 06 2024 00:02:04 GMT+0000 (Coordinated Universal Time)

1 60995U 24158F 24279.41954440 .00006591 00000+0 44191-4 0 9997 2 60995 53.1573 326.4963 0001103 81.5611 278.5535 15.76751508 5864
UTC large
Height (km)
Speed (km/s)
/
Latitude / Longitude
Inclination (degrees)
Orbital Period (minutes)
Azimuth
Elevation
Range (km)
Doppler Factor

Next 0 passes for location: London (51.5072 / 0.1276)

Sorry there are no passes over London.